Home > Weather > Charlottetown > Past weeks

Flag for Canada Weather for the Past 2 Weeks in Charlottetown, Prince Edward Island, Canada

Now
46 °F

Passing clouds.


Feels Like: 46 °F
Forecast: 31 / 49 °F
Wind: 2 mph from North

Location: Charlottetown

Current Time: Apr 30, 2016 at 12:43:10 PM

Latest Report: Apr 30, 2016 at 12:00 PM


Visibility: 15 mi

Pressure: 30.20 "Hg

Humidity: 34%

Dew Point: 19 °F

Location of CharlottetownLocation

Historic Weather in Charlottetown — Graph

°F

Charlottetown Temperature Yesterday

Maximum temperature yesterday: 48 °F (at 4:00 PM)
Minimum temperature yesterday: 27 °F (at 12:00 AM)
Average temperature yesterday: 37 °F

High & Low Weather Summary for the Past Weeks

 TemperatureHumidityPressure
High59 °F (Apr 23, 1:00 PM)100% (Apr 15, 2:00 PM)30.56 "Hg (Apr 15, 2:00 PM)
Low21 °F (Apr 19, 2:00 AM)27% (Apr 27, 2:00 PM)29.71 "Hg (Apr 21, 5:00 PM)
Average36 °F69%30.01 "Hg
* Reported Apr 15 11:00 AM — Apr 30 11:00 AM, Charlottetown, Weather by CustomWeather, © 2016

Note: Actual official high and low records may vary slightly from our data, if they occured in-between our weather recording intervals... More about our weather records

Advertising

Charlottetown Weather History for the Previous 24 Hours

Scroll right to see more
 ConditionsComfort  
Time TempWeatherWind HumidityBarometerVisibility
11:00 AM
Sat, Apr 30
46 °FPassing clouds.2 mph32%30.20 "Hg15 mi
10:00 AM45 °FPassing clouds.6 mph31%30.20 "Hg15 mi
9:00 AM41 °FPassing clouds.7 mph42%30.19 "Hg15 mi
8:00 AM39 °FPassing clouds.6 mph48%30.19 "Hg15 mi
7:00 AM36 °FPassing clouds.6 mph56%30.18 "Hg15 mi
6:00 AM32 °FPassing clouds.7 mph60%30.16 "Hg15 mi
5:00 AM32 °FClear.7 mph55%30.14 "Hg15 mi
4:00 AM30 °FClear.6 mph59%30.12 "Hg15 mi
3:00 AM32 °FClear.8 mph69%30.11 "Hg15 mi
2:00 AM32 °FClear.3 mph69%30.11 "Hg15 mi
1:00 AM32 °FClear.6 mph69%30.10 "Hg15 mi
12:00 AM36 °FClear.8 mph56%30.11 "Hg15 mi
11:00 PM
Fri, Apr 29
37 °FClear.7 mph56%30.11 "Hg15 mi
10:00 PM37 °FClear.6 mph56%30.11 "Hg15 mi
9:00 PM39 °FSunny.5 mph45%30.09 "Hg15 mi
8:00 PM43 °FSunny.10 mph36%30.06 "Hg15 mi
7:00 PM46 °FSunny.13 mph29%30.04 "Hg15 mi
6:00 PM46 °FPassing clouds.10 mph29%30.04 "Hg15 mi
5:00 PM48 °FPassing clouds.10 mph29%30.04 "Hg15 mi
4:00 PM48 °FPassing clouds.13 mph27%30.06 "Hg15 mi
3:00 PM46 °FPassing clouds.14 mph27%30.09 "Hg15 mi
2:00 PM45 °FPassing clouds.15 mph34%30.11 "Hg15 mi
1:00 PM43 °FPassing clouds.10 mph39%30.11 "Hg15 mi
12:00 PM41 °FPassing clouds.7 mph49%30.14 "Hg15 mi
Weather by CustomWeather, © 2016

See weather overviewHow to use our weather pages